F4GQK-13 Weather Reports


time (UTC)temp
C
wind
direction
speed
KPH
gust
KPH
rain 1hr
cm
rain 24hr
cm
rain mn
cm
humidity
%
barometer
mb
20260502161005 23 192 11.3 16.1 0.00 0.00 0.00 54 1015.0
20260502160504 23 231 8.0 16.1 0.00 0.00 0.00 54 1015.1
20260502152005 25 217 6.4 9.7 0.00 0.00 0.00 45 1015.3
20260502151505 25 218 3.2 11.3 0.00 0.00 0.00 42 1015.4
20260502151005 25 165 6.4 14.5 0.00 0.00 0.00 41 1015.3
20260502150505 26 176 12.9 17.7 0.00 0.00 0.00 41 1015.5
20260502130505 25 129 9.7 24.1 0.00 0.00 0.00 50 1016.9
20260502123506 25 129 3.2 17.7 0.00 0.00 0.00 53 1017.4
20260502123004 25 117 16.1 22.5 0.00 0.00 0.00 53 1017.3
20260502122505 25 184 6.4 11.3 0.00 0.00 0.00 54 1017.4
20260502122005 25 156 12.9 16.1 0.00 0.00 0.00 54 1017.6
20260502121505 26 116 12.9 17.7 0.00 0.00 0.00 54 1017.5
20260502121003 26 122 6.4 14.5 0.00 0.00 0.00 55 1017.5
20260502120505 25 151 1.6 11.3 0.00 0.00 0.00 57 1017.8
20260502115504 24 127 6.4 17.7 0.00 0.00 0.00 58 1017.9
20260502115005 24 218 9.7 17.7 0.00 0.00 0.00 57 1017.8
20260502114505 24 143 11.3 20.9 0.00 0.00 0.00 56 1017.7
20260502114005 24 104 14.5 22.5 0.00 0.00 0.00 56 1017.8
20260502113504 24 76 11.3 22.5 0.00 0.00 0.00 60 1018.2
20260502113005 24 134 6.4 20.9 0.00 0.00 0.00 61 1018.1
20260502112504 24 109 8.0 12.9 0.00 0.00 0.00 61 1018.1
20260502112005 24 137 4.8 17.7 0.00 0.00 0.00 61 1018.1
20260502111505 24 120 14.5 20.9 0.00 0.00 0.00 62 1018.1
20260502111005 23 52 4.8 6.4 0.00 0.00 0.00 66 1018.2
20260502110505 23 139 9.7 17.7 0.00 0.00 0.00 65 1018.2
20260502110005 24 126 4.8 6.4 0.00 0.00 0.00 64 1018.5
20260502105505 23 143 12.9 16.1 0.00 0.00 0.00 64 1018.6
20260502105005 24 146 3.2 14.5 0.00 0.00 0.00 64 1018.4
20260502104004 23 118 8.0 11.3 0.00 0.00 0.00 68 1018.5
20260502103504 23 149 3.2 6.4 0.00 0.00 0.00 72 1018.7
20260502103005 23 168 6.4 14.5 0.00 0.00 0.00 67 1018.7
20260502102505 23 139 3.2 14.5 0.00 0.00 0.00 69 1018.8
20260502102004 22 131 3.2 6.4 0.00 0.00 0.00 70 1018.8
20260502101504 23 180 6.4 9.7 0.00 0.00 0.00 68 1018.7
20260502101004 23 259 4.8 9.7 0.00 0.00 0.00 68 1018.9
20260502100505 22 99 1.6 12.9 0.00 0.00 0.00 68 1019.1
20260502091505 21 149 1.6 4.8 0.00 0.00 0.00 76 1019.5
20260502091005 21 121 4.8 6.4 0.00 0.00 0.00 77 1019.6
20260502090505 21 190 1.6 11.3 0.00 0.00 0.00 76 1019.7
20260502071504 15 126 6.4 6.4 0.00 0.00 0.00 95 1020.2
20260502071005 15 125 1.6 3.2 0.00 0.00 0.00 96 1020.3
20260502070504 15 122 1.6 3.2 0.00 0.00 0.00 96 1020.0
20260502070004 15 98 0.0 3.2 0.00 0.00 0.00 97 1020.0
20260502065504 15 89 0.0 1.6 0.00 0.00 0.00 97 1020.2
20260502065005 14 119 0.0 1.6 0.00 0.00 0.00 97 1020.2
20260502064504 14 131 1.6 3.2 0.00 0.00 0.00 97 1020.3
20260502064005 14 124 1.6 3.2 0.00 0.00 0.00 97 1020.1
20260502063505 14 117 0.0 1.6 0.00 0.00 0.00 98 1020.3
20260502063005 14 120 0.0 1.6 0.00 0.00 0.00 98 1020.2
20260502062505 13 120 1.6 3.2 0.00 0.00 0.00 98 1020.2
20260502062005 13 118 1.6 3.2 0.00 0.00 0.00 98 1020.1
20260502061505 13 84 0.0 1.6 0.00 0.00 0.00 98 1020.2
20260502061005 13 129 0.0 1.6 0.00 0.00 0.00 98 1020.3
20260502060505 13 129 0.0 1.6 0.00 0.00 0.00 98 1020.2
20260502060005 13 129 0.0 1.6 0.00 0.00 0.00 98 1020.2
20260502055505 13 129 0.0 0.0 0.00 0.00 0.00 98 1020.3
20260502055005 13 129 0.0 1.6 0.00 0.00 0.00 98 1020.2
20260502054504 13 129 0.0 1.6 0.00 0.00 0.00 98 1020.5
20260502054005 13 129 0.0 0.0 0.00 0.00 0.00 98 1020.3
20260502053505 12 129 0.0 1.6 0.00 0.00 0.00 98 1020.3
20260502053004 12 129 1.6 1.6 0.00 0.00 0.00 98 1020.2
20260502052505 12 129 0.0 0.0 0.00 0.00 0.00 98 1020.1
20260502052005 12 129 0.0 1.6 0.00 0.00 0.00 98 1020.3
20260502051505 12 129 0.0 0.0 0.00 0.00 0.00 98 1020.4
20260502051005 12 129 0.0 1.6 0.00 0.00 0.00 98 1020.3
20260502050505 12 125 1.6 3.2 0.00 0.00 0.00 98 1020.4
20260502050005 11 128 1.6 3.2 0.00 0.00 0.00 98 1020.4
20260502045504 11 133 1.6 1.6 0.00 0.00 0.00 98 1020.2
20260502045004 11 133 0.0 0.0 0.00 0.00 0.00 98 1020.3
20260502044505 11 133 0.0 3.2 0.00 0.00 0.00 98 1020.2
20260502044004 11 127 3.2 3.2 0.00 0.00 0.00 98 1020.3
20260502043504 11 125 0.0 0.0 0.00 0.00 0.00 98 1020.1
20260502043003 11 125 0.0 0.0 0.00 0.00 0.00 98 1020.3
20260502042504 11 125 0.0 0.0 0.00 0.00 0.00 97 1020.2
20260502042004 11 126 0.0 0.0 0.00 0.00 0.00 97 1020.5
20260502041504 12 126 1.6 1.6 0.00 0.00 0.00 97 1020.3
20260502041005 12 125 0.0 0.0 0.00 0.00 0.00 97 1020.3
20260502040505 12 125 0.0 1.6 0.00 0.00 0.00 98 1020.5
20260502040004 12 127 1.6 3.2 0.00 0.00 0.00 97 1020.4
20260502035504 11 130 1.6 3.2 0.00 0.00 0.00 97 1020.5
20260502035004 11 120 0.0 0.0 0.00 0.00 0.00 97 1020.5
20260502034504 11 120 0.0 0.0 0.00 0.00 0.00 97 1020.5
20260502034004 11 120 0.0 0.0 0.00 0.00 0.00 97 1020.5
20260502033504 11 120 0.0 0.0 0.00 0.00 0.00 97 1020.5
20260502033005 11 120 0.0 1.6 0.00 0.00 0.00 97 1020.4
20260502032505 11 120 0.0 0.0 0.00 0.00 0.00 97 1020.4
20260502032005 11 121 0.0 1.6 0.00 0.00 0.00 97 1020.7
20260502031505 11 120 0.0 1.6 0.00 0.00 0.00 97 1020.5
20260502031005 11 119 0.0 0.0 0.00 0.00 0.00 97 1020.6
20260502030504 12 119 0.0 1.6 0.00 0.00 0.00 97 1020.9
20260502030004 12 120 1.6 1.6 0.00 0.00 0.00 97 1020.8
20260502025504 12 120 0.0 1.6 0.00 0.00 0.00 97 1020.6
20260502025004 11 119 1.6 3.2 0.00 0.00 0.00 97 1020.9
20260502024504 11 130 1.6 3.2 0.00 0.00 0.00 97 1020.8
20260502024005 11 132 0.0 0.0 0.00 0.00 0.00 97 1020.8
20260502023505 11 132 0.0 1.6 0.00 0.00 0.00 97 1020.8
20260502023005 11 133 0.0 0.0 0.00 0.00 0.00 97 1020.8
20260502022505 11 133 0.0 0.0 0.00 0.00 0.00 97 1020.9
20260502022005 11 132 0.0 0.0 0.00 0.00 0.00 96 1021.0
20260502021505 12 132 0.0 0.0 0.00 0.00 0.00 97 1021.0
20260502021005 12 132 0.0 0.0 0.00 0.00 0.00 97 1020.9
20260502020505 12 132 1.6 3.2 0.00 0.00 0.00 96 1021.0
20260502020005 12 249 0.0 1.6 0.00 0.00 0.00 96 1021.0
20260502015505 12 107 0.0 1.6 0.00 0.00 0.00 96 1021.1
20260502015005 12 105 0.0 1.6 0.00 0.00 0.00 96 1020.9
20260502014505 12 104 0.0 0.0 0.00 0.00 0.00 96 1020.9
20260502014005 12 105 0.0 0.0 0.00 0.00 0.00 96 1021.0
20260502013504 12 105 0.0 1.6 0.00 0.00 0.00 96 1021.0
20260502013005 12 104 0.0 1.6 0.00 0.00 0.00 96 1021.0
20260502012504 12 104 0.0 0.0 0.00 0.00 0.00 96 1020.9
20260502012005 12 104 0.0 0.0 0.00 0.00 0.00 96 1021.1
20260502011505 12 104 0.0 0.0 0.00 0.00 0.00 96 1021.2
20260502011004 12 104 0.0 1.6 0.00 0.00 0.00 96 1021.1
20260502010505 12 105 0.0 1.6 0.00 0.00 0.00 95 1021.1
20260502010004 12 104 0.0 0.0 0.00 0.00 0.00 95 1021.1
20260502005504 12 104 0.0 0.0 0.00 0.00 0.00 95 1021.1
20260502005005 12 104 1.6 1.6 0.00 0.00 0.00 95 1021.3
20260502004504 12 79 1.6 3.2 0.00 0.00 0.00 95 1021.3
20260502004005 12 87 0.0 1.6 0.00 0.00 0.00 95 1021.1
20260502003505 13 88 0.0 0.0 0.00 0.00 0.00 95 1021.4
20260502003005 12 87 0.0 0.0 0.00 0.00 0.00 95 1021.5
20260502002505 13 89 0.0 0.0 0.00 0.00 0.00 95 1021.5
20260502002005 13 100 0.0 1.6 0.00 0.00 0.00 95 1021.3
20260502001504 13 100 0.0 1.6 0.00 0.00 0.00 94 1021.3
20260502001005 13 143 0.0 1.6 0.00 0.00 0.00 94 1021.3
20260502000505 13 143 0.0 1.6 0.00 0.00 0.00 94 1021.5
20260502000004 13 143 0.0 0.0 0.00 0.00 0.00 94 1021.3
20260501235505 13 143 0.0 0.0 0.00 0.00 0.00 94 1021.4
20260501235005 13 143 0.0 0.0 0.00 0.00 0.00 94 1021.6
20260501234504 13 143 0.0 0.0 0.00 0.00 0.00 94 1021.5
20260501234005 14 143 0.0 0.0 0.00 0.00 0.00 94 1021.5
20260501233505 14 143 0.0 0.0 0.00 0.00 0.00 94 1021.6
20260501233005 14 143 0.0 0.0 0.00 0.00 0.00 94 1021.8
20260501232504 14 144 0.0 0.0 0.00 0.00 0.00 94 1021.7
20260501232004 14 131 0.0 0.0 0.00 0.00 0.00 94 1021.6
20260501231505 14 131 0.0 3.2 0.00 0.00 0.00 94 1021.6
20260501231005 14 120 3.2 6.4 0.00 0.00 0.00 94 1021.7
20260501230504 14 123 3.2 4.8 0.00 0.00 0.00 94 1021.5
20260501230005 14 144 1.6 3.2 0.00 0.00 0.00 94 1021.8
20260501225505 14 118 1.6 3.2 0.13 0.00 0.00 94 1021.9
20260501225005 14 97 0.0 1.6 0.13 0.00 0.00 93 1021.8
20260501224505 15 97 0.0 1.6 0.13 0.00 0.00 93 1021.7
20260501224005 15 97 0.0 1.6 0.13 0.00 0.00 93 1021.7
20260501223504 15 97 0.0 0.0 0.13 0.00 0.00 93 1021.6
20260501223005 15 98 0.0 0.0 0.13 0.00 0.00 93 1021.6
20260501222505 15 98 0.0 0.0 0.13 0.00 0.00 92 1021.7
20260501222005 15 98 0.0 0.0 0.13 0.00 0.00 92 1021.6
20260501221505 15 129 0.0 1.6 0.13 0.00 0.00 92 1021.7
20260501221004 15 130 0.0 1.6 0.13 0.00 0.00 92 1021.5
20260501220504 15 123 1.6 1.6 0.13 0.00 0.00 92 1021.5
20260501220005 15 123 0.0 1.6 0.00 0.00 0.13 92 1021.4
20260501215505 15 106 0.0 6.4 0.00 0.00 0.13 92 1021.4
20260501215005 16 125 6.4 9.7 0.00 0.00 0.13 91 1021.9
20260501214505 16 123 1.6 1.6 0.00 0.00 0.13 91 1021.7
20260501214005 16 101 6.4 6.4 0.00 0.00 0.13 91 1021.8
20260501213505 16 105 3.2 9.7 0.00 0.00 0.13 91 1021.7
20260501213005 16 111 6.4 6.4 0.00 0.00 0.13 91 1021.7
20260501212503 16 121 3.2 6.4 0.00 0.00 0.13 90 1021.8
20260501212005 16 95 0.0 9.7 0.00 0.00 0.13 90 1021.8
20260501211505 16 131 6.4 9.7 0.00 0.00 0.13 89 1021.9
20260501211004 16 108 3.2 11.3 0.00 0.00 0.13 89 1022.0
20260501210505 17 92 4.8 14.5 0.00 0.00 0.13 87 1022.1
20260501210005 17 116 6.4 16.1 0.00 0.00 0.13 86 1022.2
20260501205505 17 133 6.4 11.3 0.00 0.00 0.13 87 1022.0
20260501205005 17 111 9.7 12.9 0.00 0.00 0.13 87 1022.2
20260501204505 16 128 8.0 14.5 0.00 0.00 0.13 87 1022.0
20260501204005 16 118 4.8 6.4 0.00 0.00 0.13 87 1022.0
20260501203505 16 112 0.0 3.2 0.00 0.00 0.13 87 1022.1
20260501203005 16 130 4.8 6.4 0.00 0.00 0.13 87 1022.0
20260501202505 16 133 4.8 6.4 0.00 0.00 0.13 87 1021.9
20260501202005 16 96 3.2 4.8 0.00 0.00 0.13 87 1021.9
20260501201505 16 95 1.6 6.4 0.00 0.00 0.13 87 1021.9
20260501201005 16 92 0.0 1.6 0.00 0.00 0.13 87 1021.8
20260501200505 16 89 1.6 3.2 0.00 0.00 0.13 87 1021.8
20260501200005 16 124 3.2 4.8 0.00 0.00 0.13 87 1021.7
20260501195505 16 95 3.2 4.8 0.00 0.00 0.13 87 1021.6
20260501195004 16 72 1.6 3.2 0.00 0.00 0.13 87 1021.6
20260501194505 16 69 3.2 6.4 0.00 0.00 0.13 88 1021.7
20260501194005 16 91 0.0 1.6 0.00 0.00 0.13 89 1021.6
20260501193504 16 112 0.0 1.6 0.00 0.00 0.13 89 1021.6
20260501193006 16 97 3.2 3.2 0.00 0.00 0.13 90 1021.7
20260501192505 16 110 0.0 0.0 0.00 0.00 0.13 90 1021.6
20260501192005 16 108 3.2 9.7 0.00 0.00 0.13 91 1021.5
20260501191504 16 128 0.0 3.2 0.00 0.00 0.13 91 1021.4
20260501191005 16 126 1.6 3.2 0.00 0.00 0.13 90 1021.5
20260501190505 17 105 0.0 1.6 0.00 0.00 0.13 90 1021.3
20260501190004 17 75 0.0 1.6 0.00 0.00 0.13 90 1021.4
20260501185505 17 94 1.6 3.2 0.03 0.00 0.13 89 1021.3
20260501185005 17 294 0.0 0.0 0.03 0.00 0.13 89 1021.3
20260501184505 17 294 0.0 0.0 0.03 0.00 0.13 89 1021.2
20260501184005 17 275 3.2 4.8 0.03 0.00 0.13 89 1021.5
20260501183504 17 28 1.6 3.2 0.08 0.00 0.13 87 1021.4
20260501183006 17 28 1.6 3.2 0.08 0.00 0.13 87 1021.4
20260501182504 17 28 1.6 3.2 0.08 0.00 0.13 87 1021.4
20260501182005 17 28 1.6 3.2 0.08 0.00 0.13 87 1021.4
20260501181503 17 17 1.6 3.2 0.08 0.00 0.13 87 1021.5
20260501181004 17 283 4.8 9.7 0.08 0.00 0.13 86 1021.7
20260501180505 18 300 3.2 9.7 0.08 0.00 0.13 85 1021.4
20260501180003 18 295 1.6 1.6 0.08 0.00 0.13 82 1021.2
20260501175504 18 219 0.0 0.0 0.05 0.00 0.10 80 1021.3
20260501175005 18 273 0.0 3.2 0.05 0.00 0.10 79 1021.2
20260501174505 18 218 14.5 17.7 0.05 0.00 0.10 82 1021.1
20260501174005 18 242 3.2 14.5 0.05 0.00 0.10 83 1021.0
20260501173505 18 265 6.4 11.3 0.05 0.00 0.10 79 1021.0
20260501173005 19 128 3.2 4.8 0.05 0.00 0.10 73 1020.6
20260501172503 20 123 6.4 6.4 0.00 0.00 0.05 67 1020.5
20260501172005 20 110 6.4 12.9 0.00 0.00 0.05 68 1020.4
20260501171503 20 87 6.4 6.4 0.00 0.00 0.05 71 1020.5
20260501171005 19 118 4.8 12.9 0.00 0.00 0.05 71 1020.6
20260501170505 20 132 6.4 22.5 0.00 0.00 0.05 73 1020.7
20260501170005 20 26 9.7 11.3 0.00 0.00 0.05 75 1020.6
20260501165505 21 144 12.9 24.1 0.00 0.00 0.05 76 1020.7
20260501165005 21 102 3.2 4.8 0.03 0.00 0.05 80 1020.4
20260501164504 21 114 1.6 3.2 0.05 0.00 0.05 82 1020.3
20260501164005 22 78 0.0 3.2 0.05 0.00 0.05 82 1020.5
20260501163504 22 84 1.6 3.2 0.05 0.00 0.05 80 1020.3
20260501163003 23 43 1.6 3.2 0.05 0.00 0.05 76 1020.2
20260501162505 22 40 0.0 1.6 0.05 0.00 0.05 74 1020.5
20260501162005 22 40 0.0 1.6 0.05 0.00 0.05 76 1020.7
20260501161504 22 69 1.6 3.2 0.05 0.00 0.05 75 1020.6